CW6778 Weather Reports


Display with metric or nautical units.
time (UTC)temp
F
wind
direction
speed
MPH
gust
MPH
rain 1hr
in
rain 24hr
in
rain mn
in
humidity
%
barometer
mb
20260503200052 57 360 11.0 24.0 0.00 0.00 0.00 36 1012.4
20260503195531 57 105 12.0 24.0 0.00 0.00 0.00 37 1012.4
20260503195029 57 360 8.0 21.0 0.00 0.00 0.00 36 1012.5
20260503194552 57 360 12.0 20.0 0.00 0.00 0.00 36 1012.7
20260503194030 57 344 6.0 21.0 0.00 0.00 0.00 37 1012.7
20260503193534 57 360 12.0 24.0 0.00 0.00 0.00 40 1012.7
20260503193046 57 179 11.0 24.0 0.00 0.00 0.00 38 1012.7
20260503192530 57 360 6.0 20.0 0.00 0.00 0.00 39 1012.8
20260503192032 57 11 6.0 28.0 0.00 0.00 0.00 37 1012.9
20260503191546 56 360 11.0 28.0 0.00 0.00 0.00 36 1012.9
20260503191030 56 360 16.0 28.0 0.00 0.00 0.00 38 1013.0
20260503190529 56 360 14.0 21.0 0.00 0.00 0.00 39 1012.9
20260503190045 56 360 11.0 25.0 0.00 0.00 0.00 36 1013.0
20260503185530 56 16 7.0 26.0 0.00 0.00 0.00 40 1013.1
20260503185031 56 360 14.0 26.0 0.00 0.00 0.00 41 1013.1
20260503184558 55 360 11.0 18.0 0.00 0.00 0.00 39 1013.1
20260503184030 55 360 10.0 18.0 0.00 0.00 0.00 40 1013.2
20260503183531 55 360 8.0 24.0 0.00 0.00 0.00 40 1013.3
20260503183051 55 360 9.0 24.0 0.00 0.00 0.00 40 1013.4
20260503182528 55 360 14.0 24.0 0.00 0.00 0.00 40 1013.4
20260503182031 55 279 3.0 24.0 0.00 0.00 0.00 41 1013.4
20260503181554 55 360 8.0 24.0 0.00 0.00 0.00 39 1013.4
20260503181033 55 360 12.0 35.0 0.00 0.00 0.00 41 1013.4
20260503180532 55 64 18.0 35.0 0.00 0.00 0.00 38 1013.4
20260503180052 55 360 8.0 21.0 0.00 0.00 0.00 41 1013.5
20260503175530 55 360 8.0 14.0 0.00 0.00 0.00 41 1013.6
20260503175032 54 360 7.0 20.0 0.00 0.00 0.00 44 1013.4
20260503174543 53 360 10.0 21.0 0.00 0.00 0.00 42 1013.7
20260503174032 53 360 11.0 21.0 0.00 0.00 0.00 41 1013.6
20260503173530 53 360 8.0 21.0 0.00 0.00 0.00 41 1013.7
20260503173045 53 360 11.0 21.0 0.00 0.00 0.00 41 1013.7
20260503172529 53 360 8.0 22.0 0.00 0.00 0.00 39 1013.8
20260503172032 54 360 10.0 22.0 0.00 0.00 0.00 39 1013.8
20260503171604 54 360 8.0 24.0 0.00 0.00 0.00 40 1013.8
20260503171031 54 281 11.0 24.0 0.00 0.00 0.00 41 1013.7
20260503170531 53 360 12.0 22.0 0.00 0.00 0.00 41 1013.6
20260503150529 48 360 11.0 19.0 0.00 0.00 0.00 49 1014.9
20260503131032 43 283 6.0 16.0 0.00 0.00 0.00 60 1015.5
20260503130530 43 360 8.0 16.0 0.00 0.00 0.00 60 1015.6
20260503110531 36 360 3.0 8.0 0.00 0.00 0.00 72 1015.0
20260503081550 37 360 5.0 12.0 0.00 0.00 0.00 69 1013.7
20260503081030 37 360 5.0 9.0 0.00 0.00 0.00 69 1013.7
20260503080530 37 360 4.0 10.0 0.00 0.00 0.00 69 1013.6
20260503072530 37 360 3.0 10.0 0.00 0.00 0.00 67 1013.3
20260503072029 37 360 5.0 9.0 0.00 0.00 0.00 67 1013.3
20260503071604 37 360 3.0 9.0 0.00 0.00 0.00 67 1013.4
20260503071029 37 360 3.0 8.0 0.00 0.00 0.00 67 1013.4
20260503070529 37 360 3.0 7.0 0.00 0.00 0.00 67 1013.3
20260503055030 39 20 3.0 14.0 0.00 0.03 0.00 63 1013.4
20260503054557 39 360 4.0 14.0 0.00 0.03 0.00 63 1013.4
20260503054029 39 360 4.0 9.0 0.00 0.03 0.00 63 1013.5
20260503053528 39 360 4.0 8.0 0.00 0.03 0.00 63 1013.5
20260503053045 39 360 4.0 8.0 0.00 0.03 0.00 63 1013.5
20260503052529 40 360 4.0 9.0 0.00 0.03 0.00 62 1013.5
20260503052030 40 351 3.0 9.0 0.00 0.03 0.00 62 1013.5
20260503051548 40 360 3.0 6.0 0.00 0.03 0.00 62 1013.6
20260503051028 40 360 1.0 10.0 0.00 0.03 0.00 62 1013.6
20260503050528 40 350 3.0 10.0 0.00 0.03 0.00 62 1013.6
20260503050050 40 360 2.0 6.0 0.00 0.03 0.00 62 1013.6
20260503045529 40 360 3.0 6.0 0.00 0.07 0.00 63 1013.7
20260503045032 40 0 0.0 3.0 0.00 0.07 0.00 63 1013.8
20260503044553 40 360 0.0 3.0 0.00 0.07 0.00 63 1013.7
20260503044031 40 0 0.0 5.0 0.00 0.07 0.00 63 1013.7
20260503043530 40 0 2.0 5.0 0.00 0.07 0.00 63 1013.8
20260503043050 40 37 1.0 4.0 0.00 0.07 0.00 63 1013.8
20260503042530 40 0 0.0 2.0 0.00 0.07 0.00 63 1013.9
20260503042031 40 0 0.0 0.0 0.00 0.07 0.00 64 1013.8
20260503041548 41 0 0.0 3.0 0.00 0.07 0.00 63 1013.7
20260503041031 41 0 0.0 4.0 0.00 0.07 0.00 62 1013.7
20260503040530 41 360 1.0 4.0 0.00 0.07 0.00 62 1013.7
20260503040052 41 0 1.0 6.0 0.00 0.07 0.00 62 1013.7
20260503035528 41 0 1.0 6.0 0.00 0.09 0.07 63 1013.8
20260503035028 41 360 2.0 5.0 0.00 0.09 0.07 63 1013.8
20260503034549 41 0 0.0 5.0 0.00 0.09 0.07 63 1013.8
20260503034028 41 360 0.0 4.0 0.00 0.09 0.07 63 1013.8
20260503033531 41 0 1.0 5.0 0.00 0.09 0.07 62 1013.8
20260503033048 41 0 0.0 5.0 0.00 0.09 0.07 62 1013.9
20260503032529 41 0 1.0 9.0 0.00 0.09 0.07 62 1013.9
20260503032033 41 360 2.0 9.0 0.00 0.09 0.07 63 1014.0
20260503031547 41 360 3.0 8.0 0.00 0.09 0.07 63 1014.0
20260503031032 41 360 2.0 9.0 0.00 0.09 0.07 64 1014.0
20260503030530 41 360 4.0 9.0 0.00 0.09 0.07 64 1014.0
20260503030046 41 360 3.0 9.0 0.00 0.09 0.07 64 1014.0
20260503025530 41 360 2.0 8.0 0.00 0.09 0.07 64 1014.0
20260503025030 41 360 4.0 9.0 0.00 0.09 0.07 64 1014.0
20260503024548 41 355 4.0 10.0 0.00 0.09 0.07 65 1014.1
20260503024030 41 360 3.0 10.0 0.00 0.09 0.07 66 1014.1
20260503023529 41 360 3.0 11.0 0.00 0.09 0.07 65 1014.1
20260503023047 41 360 4.0 11.0 0.00 0.09 0.07 65 1014.1
20260503022529 41 360 3.0 10.0 0.00 0.09 0.07 66 1014.1
20260503022030 41 360 3.0 10.0 0.00 0.09 0.07 66 1014.1
20260503021557 41 360 4.0 9.0 0.00 0.09 0.07 67 1014.1
20260503021029 41 360 4.0 9.0 0.00 0.09 0.07 68 1014.1
20260503020528 41 360 0.0 6.0 0.00 0.09 0.07 69 1014.2
20260503020053 41 360 2.0 6.0 0.00 0.09 0.07 68 1014.1
20260503015529 41 360 3.0 11.0 0.00 0.09 0.07 68 1014.1
20260503015031 41 347 4.0 13.0 0.00 0.09 0.07 68 1014.0
20260503014549 41 360 6.0 13.0 0.00 0.09 0.07 69 1013.9
20260503014030 41 360 4.0 10.0 0.00 0.09 0.07 71 1014.0
20260503013529 41 360 4.0 10.0 0.00 0.09 0.07 72 1014.0
20260503013045 41 360 4.0 10.0 0.00 0.09 0.07 72 1014.0
20260503012529 41 360 5.0 9.0 0.00 0.09 0.07 72 1014.0
20260503012029 41 360 3.0 8.0 0.00 0.09 0.07 72 1013.9
20260503011558 42 360 2.0 8.0 0.00 0.09 0.07 72 1013.9
20260503011029 42 360 3.0 9.0 0.00 0.09 0.07 72 1013.8
20260503010531 42 360 3.0 9.0 0.00 0.09 0.07 72 1013.7
20260503010043 42 284 3.0 8.0 0.00 0.09 0.07 73 1013.7
20260503005533 42 360 3.0 8.0 0.00 0.11 0.07 74 1013.7
20260503005030 42 360 3.0 9.0 0.00 0.11 0.07 74 1013.6
20260503004548 42 360 4.0 9.0 0.00 0.11 0.07 74 1013.5
20260503004030 42 360 4.0 9.0 0.00 0.11 0.07 74 1013.6
20260503003530 42 360 4.0 9.0 0.00 0.11 0.07 74 1013.5
20260503003047 42 360 4.0 9.0 0.00 0.11 0.07 73 1013.3
20260503002530 43 360 3.0 8.0 0.00 0.11 0.07 73 1013.3
20260503002031 43 360 3.0 8.0 0.00 0.11 0.07 73 1013.3
20260503001548 43 0 1.0 7.0 0.00 0.11 0.07 72 1013.3
20260503001032 43 284 2.0 7.0 0.00 0.11 0.07 72 1013.4
20260503000533 43 360 3.0 9.0 0.00 0.11 0.07 72 1013.3
20260502235529 43 360 4.0 8.0 0.00 0.12 0.07 70 1013.2
20260502235030 43 360 2.0 8.0 0.00 0.12 0.07 70 1013.3
20260502234600 43 360 2.0 8.0 0.00 0.12 0.07 70 1013.3
20260502234029 43 360 3.0 6.0 0.00 0.12 0.07 70 1013.2
20260502233530 43 360 2.0 5.0 0.00 0.12 0.07 70 1013.3
20260502233042 43 360 1.0 8.0 0.00 0.12 0.07 69 1013.3
20260502232529 43 360 2.0 8.0 0.00 0.12 0.07 69 1013.2
20260502232029 44 360 3.0 9.0 0.00 0.12 0.07 68 1013.2
20260502231548 44 360 4.0 9.0 0.00 0.12 0.07 68 1013.0
20260502231028 44 360 4.0 9.0 0.00 0.12 0.07 69 1013.1
20260502230529 44 360 2.0 11.0 0.00 0.12 0.07 69 1013.1
20260502230049 44 360 4.0 11.0 0.00 0.12 0.07 70 1013.0
20260502225528 44 360 5.0 9.0 0.00 0.12 0.07 70 1013.1
20260502225029 44 360 3.0 13.0 0.00 0.12 0.07 69 1013.1
20260502224549 44 360 4.0 13.0 0.00 0.12 0.07 68 1013.0
20260502224030 44 360 5.0 13.0 0.00 0.12 0.07 69 1013.0
20260502223528 45 360 1.0 5.0 0.00 0.12 0.07 69 1012.9
20260502223048 45 360 0.0 5.0 0.00 0.12 0.07 69 1013.0
20260502222530 44 0 1.0 6.0 0.00 0.12 0.07 69 1012.9
20260502222031 45 360 2.0 6.0 0.00 0.12 0.07 69 1012.9
20260502221548 45 360 1.0 5.0 0.00 0.12 0.07 69 1012.9
20260502221029 44 0 1.0 5.0 0.00 0.12 0.07 69 1012.9
20260502220531 44 0 1.0 5.0 0.00 0.12 0.07 70 1012.9
20260502220057 44 360 0.0 6.0 0.00 0.12 0.07 70 1012.9
20260502215531 44 0 2.0 8.0 0.00 0.13 0.07 71 1013.0
20260502215030 44 360 3.0 8.0 0.00 0.13 0.07 71 1012.9
20260502214542 44 360 4.0 9.0 0.00 0.13 0.07 70 1012.8
20260502214029 44 344 4.0 9.0 0.00 0.13 0.07 71 1012.9
20260502213531 44 360 4.0 8.0 0.00 0.13 0.07 72 1013.0
20260502213048 44 360 3.0 8.0 0.00 0.13 0.07 72 1012.8
20260502212527 44 360 3.0 8.0 0.00 0.13 0.07 72 1012.8
20260502212031 44 360 2.0 8.0 0.00 0.13 0.07 72 1012.9
20260502211547 44 360 2.0 8.0 0.00 0.13 0.07 72 1012.9
20260502211028 44 360 3.0 8.0 0.00 0.13 0.07 72 1012.8
20260502210530 44 360 2.0 10.0 0.00 0.13 0.07 72 1012.7
20260502210103 44 360 3.0 10.0 0.00 0.13 0.07 72 1012.7
20260502205530 44 60 6.0 11.0 0.00 0.16 0.07 71 1012.8
20260502205030 44 360 5.0 13.0 0.00 0.16 0.07 71 1012.8
20260502204544 44 360 9.0 13.0 0.00 0.16 0.07 71 1012.8
20260502204030 44 360 3.0 10.0 0.00 0.16 0.07 71 1012.9
20260502203530 44 75 5.0 12.0 0.00 0.16 0.07 71 1012.8
20260502203041 44 360 6.0 12.0 0.00 0.16 0.07 71 1012.7
20260502202530 44 360 2.0 11.0 0.00 0.16 0.07 72 1012.8
20260502202029 44 55 3.0 11.0 0.00 0.16 0.07 72 1012.8
20260502201551 44 360 3.0 11.0 0.00 0.16 0.07 71 1012.8
20260502201030 44 360 3.0 9.0 0.00 0.16 0.07 71 1012.8
20260502200528 44 360 3.0 12.0 0.00 0.16 0.07 71 1012.8